Location: Unspecified
(0.0000°N, 0.0000°E)
Time: 12:00:24
(UTC+00:00)

Vanguard 1 - Pass Details

Date: 18 December 2018
Orbit: 652 x 3832 km, 34.2° (Epoch: 25 March)

Event Time Altitude Azimuth Distance (km) Brightness Sun altitude
Rises 20:08:11 0° 232° (SW) 7,963 15.8 -29.9°
Reaches altitude 10° 20:17:58 10° 214° (SSW) 6,687 15.0 -32.0°
Maximum altitude 20:29:21 16° 180° (S) 5,481 14.1 -34.5°
Drops below altitude 10° 20:38:24 10° 146° (SE) 5,225 13.7 -36.5°
Enters shadow 20:43:48 - 127° (SE) 5,560 13.7 -37.7°
